| time (UTC) | temp C | wind direction | speed KPH | gust KPH | rain 1hr cm | rain 24hr cm | rain mn cm | humidity % | barometer mb |
| 20260504151045 | 20 | 139 | 4.8 | 4.8 | 0.00 | 0.00 | 0.00 | 33 | 1014.2 |
| 20260504150542 | 20 | 146 | 1.6 | 3.2 | 0.00 | 0.00 | 0.00 | 34 | 1014.3 |
| 20260504141008 | 18 | 207 | 4.8 | 4.8 | 0.00 | 0.00 | 0.00 | 37 | 1014.6 |
| 20260504140505 | 17 | 258 | 3.2 | 3.2 | 0.00 | 0.00 | 0.00 | 37 | 1014.5 |
| 20260504130429 | 15 | 261 | 3.2 | 6.4 | 0.00 | 0.00 | 0.00 | 46 | 1015.3 |
| 20260504110316 | 12 | 237 | 3.2 | 3.2 | 0.00 | 0.00 | 0.00 | 53 | 1015.5 |
| 20260504100234 | 12 | 222 | 3.2 | 3.2 | 0.00 | 0.00 | 0.00 | 53 | 1015.3 |
| 20260504081628 | 12 | 260 | 3.2 | 3.2 | 0.00 | 0.00 | 0.00 | 54 | 1016.1 |
| 20260504081123 | 12 | 254 | 1.6 | 1.6 | 0.00 | 0.00 | 0.00 | 54 | 1016.0 |
| 20260504080620 | 12 | 264 | 3.2 | 3.2 | 0.00 | 0.00 | 0.00 | 53 | 1015.6 |
| 20260504080117 | 12 | 230 | 1.6 | 3.2 | 0.00 | 0.00 | 0.00 | 54 | 1015.8 |
| 20260504050433 | 11 | 259 | 0.0 | 0.0 | 0.00 | 0.00 | 0.00 | 56 | 1016.2 |
| 20260504045930 | 11 | 258 | 0.0 | 0.0 | 0.00 | 0.00 | 0.00 | 55 | 1016.0 |
| 20260504045426 | 11 | 256 | 0.0 | 1.6 | 0.00 | 0.00 | 0.00 | 54 | 1016.2 |
| 20260504044922 | 12 | 257 | 0.0 | 1.6 | 0.00 | 0.00 | 0.00 | 51 | 1016.1 |
| 20260504044420 | 12 | 243 | 0.0 | 0.0 | 0.00 | 0.00 | 0.00 | 49 | 1016.2 |
| 20260504043917 | 12 | 252 | 1.6 | 3.2 | 0.00 | 0.00 | 0.00 | 49 | 1016.2 |
| 20260504043414 | 12 | 236 | 1.6 | 1.6 | 0.00 | 0.00 | 0.00 | 48 | 1016.1 |
| 20260504042911 | 12 | 236 | 1.6 | 1.6 | 0.00 | 0.00 | 0.00 | 48 | 1016.3 |
| 20260504042408 | 12 | 239 | 1.6 | 3.2 | 0.00 | 0.00 | 0.00 | 47 | 1016.0 |
| 20260504041904 | 12 | 224 | 1.6 | 1.6 | 0.00 | 0.00 | 0.00 | 46 | 1016.1 |
| 20260504041400 | 12 | 246 | 0.0 | 0.0 | 0.00 | 0.00 | 0.00 | 46 | 1016.0 |
| 20260504040856 | 12 | 248 | 1.6 | 3.2 | 0.00 | 0.00 | 0.00 | 45 | 1016.0 |
| 20260504040354 | 12 | 252 | 0.0 | 0.0 | 0.00 | 0.00 | 0.00 | 45 | 1016.0 |
| 20260504035850 | 12 | 243 | 1.6 | 3.2 | 0.00 | 0.00 | 0.00 | 45 | 1016.0 |
| 20260504035348 | 12 | 234 | 0.0 | 1.6 | 0.00 | 0.00 | 0.00 | 45 | 1016.3 |
| 20260504034844 | 12 | 254 | 0.0 | 0.0 | 0.00 | 0.00 | 0.00 | 44 | 1016.2 |
| 20260504034342 | 12 | 242 | 0.0 | 0.0 | 0.00 | 0.00 | 0.00 | 43 | 1016.4 |
| 20260504033838 | 12 | 216 | 1.6 | 1.6 | 0.00 | 0.00 | 0.00 | 43 | 1016.1 |
| 20260504033337 | 13 | 243 | 0.0 | 1.6 | 0.00 | 0.00 | 0.00 | 42 | 1016.1 |
| 20260504032833 | 12 | 249 | 0.0 | 1.6 | 0.00 | 0.00 | 0.00 | 42 | 1015.9 |
| 20260504032330 | 12 | 244 | 3.2 | 4.8 | 0.00 | 0.00 | 0.00 | 42 | 1016.1 |
| 20260504031827 | 12 | 239 | 0.0 | 0.0 | 0.00 | 0.00 | 0.00 | 44 | 1015.9 |
| 20260504031324 | 12 | 218 | 1.6 | 1.6 | 0.00 | 0.00 | 0.00 | 44 | 1015.9 |
| 20260504030820 | 11 | 254 | 1.6 | 1.6 | 0.00 | 0.00 | 0.00 | 46 | 1016.0 |
| 20260504030318 | 10 | 253 | 0.0 | 1.6 | 0.00 | 0.00 | 0.00 | 53 | 1015.6 |
| 20260504025814 | 10 | 255 | 0.0 | 1.6 | 0.00 | 0.00 | 0.00 | 56 | 1015.8 |
| 20260504025311 | 10 | 256 | 0.0 | 0.0 | 0.00 | 0.00 | 0.00 | 57 | 1015.8 |
| 20260504024808 | 10 | 255 | 0.0 | 0.0 | 0.00 | 0.00 | 0.00 | 57 | 1015.5 |
| 20260504024304 | 10 | 257 | 0.0 | 0.0 | 0.00 | 0.00 | 0.00 | 56 | 1015.8 |
| 20260504023801 | 10 | 257 | 0.0 | 0.0 | 0.00 | 0.00 | 0.00 | 56 | 1015.6 |
| 20260504023257 | 10 | 259 | 0.0 | 0.0 | 0.00 | 0.00 | 0.00 | 56 | 1015.4 |
| 20260504022753 | 10 | 257 | 0.0 | 0.0 | 0.00 | 0.00 | 0.00 | 55 | 1015.8 |
| 20260504022250 | 11 | 257 | 0.0 | 0.0 | 0.00 | 0.00 | 0.00 | 53 | 1015.4 |
| 20260504021747 | 11 | 255 | 0.0 | 0.0 | 0.00 | 0.00 | 0.00 | 53 | 1015.5 |
| 20260504021244 | 11 | 257 | 0.0 | 0.0 | 0.00 | 0.00 | 0.00 | 52 | 1015.5 |
| 20260504020741 | 11 | 257 | 0.0 | 0.0 | 0.00 | 0.00 | 0.00 | 51 | 1015.4 |
| 20260504020237 | 11 | 257 | 0.0 | 0.0 | 0.00 | 0.00 | 0.00 | 51 | 1015.3 |
| 20260504015734 | 11 | 256 | 0.0 | 0.0 | 0.00 | 0.00 | 0.00 | 50 | 1015.3 |
| 20260504015230 | 11 | 255 | 0.0 | 0.0 | 0.00 | 0.00 | 0.00 | 50 | 1015.3 |
| 20260504014726 | 11 | 254 | 0.0 | 0.0 | 0.00 | 0.00 | 0.00 | 50 | 1015.3 |
| 20260504014223 | 11 | 257 | 0.0 | 0.0 | 0.00 | 0.00 | 0.00 | 49 | 1015.2 |
| 20260504013721 | 11 | 261 | 0.0 | 0.0 | 0.00 | 0.00 | 0.00 | 48 | 1015.2 |
| 20260504013218 | 12 | 255 | 0.0 | 0.0 | 0.00 | 0.00 | 0.00 | 48 | 1015.2 |
| 20260504012714 | 12 | 257 | 0.0 | 0.0 | 0.00 | 0.00 | 0.00 | 47 | 1015.1 |
| 20260504012212 | 12 | 259 | 0.0 | 0.0 | 0.00 | 0.00 | 0.00 | 45 | 1015.2 |
| 20260504011709 | 12 | 257 | 0.0 | 0.0 | 0.00 | 0.00 | 0.00 | 45 | 1015.2 |
| 20260504011206 | 12 | 256 | 0.0 | 0.0 | 0.00 | 0.00 | 0.00 | 44 | 1015.1 |
| 20260504010701 | 12 | 257 | 0.0 | 0.0 | 0.00 | 0.00 | 0.00 | 43 | 1015.2 |
| 20260504010157 | 13 | 256 | 0.0 | 0.0 | 0.00 | 0.00 | 0.00 | 42 | 1015.1 |
| 20260504005654 | 13 | 255 | 0.0 | 0.0 | 0.00 | 0.00 | 0.00 | 41 | 1015.0 |
| 20260504005151 | 13 | 259 | 0.0 | 0.0 | 0.00 | 0.00 | 0.00 | 39 | 1015.0 |
| 20260504004649 | 14 | 257 | 0.0 | 0.0 | 0.00 | 0.00 | 0.00 | 37 | 1015.0 |
| 20260504004146 | 15 | 257 | 0.0 | 0.0 | 0.00 | 0.00 | 0.00 | 35 | 1014.8 |
| 20260504003642 | 15 | 252 | 1.6 | 3.2 | 0.00 | 0.00 | 0.00 | 32 | 1015.0 |
| 20260504003139 | 15 | 245 | 1.6 | 1.6 | 0.00 | 0.00 | 0.00 | 32 | 1015.0 |
| 20260504002636 | 15 | 250 | 0.0 | 0.0 | 0.00 | 0.00 | 0.00 | 31 | 1014.8 |
| 20260504002133 | 15 | 252 | 1.6 | 1.6 | 0.00 | 0.00 | 0.00 | 31 | 1014.9 |
| 20260504001631 | 15 | 253 | 1.6 | 1.6 | 0.00 | 0.00 | 0.00 | 31 | 1014.8 |
| 20260504001126 | 15 | 249 | 0.0 | 1.6 | 0.00 | 0.00 | 0.00 | 31 | 1014.7 |
| 20260504000619 | 15 | 253 | 0.0 | 0.0 | 0.00 | 0.00 | 0.00 | 30 | 1014.6 |
| 20260504000116 | 16 | 249 | 1.6 | 1.6 | 0.00 | 0.00 | 0.00 | 30 | 1014.5 |
| 20260503235614 | 16 | 265 | 3.2 | 4.8 | 0.00 | 0.00 | 0.00 | 29 | 1014.6 |
| 20260503235111 | 16 | 260 | 1.6 | 1.6 | 0.00 | 0.00 | 0.00 | 29 | 1014.6 |
| 20260503234609 | 16 | 254 | 0.0 | 1.6 | 0.00 | 0.00 | 0.00 | 28 | 1014.4 |
| 20260503234106 | 17 | 267 | 0.0 | 1.6 | 0.00 | 0.00 | 0.00 | 27 | 1014.4 |
| 20260503233603 | 17 | 276 | 0.0 | 1.6 | 0.00 | 0.00 | 0.00 | 27 | 1014.3 |
| 20260503233058 | 17 | 254 | 1.6 | 1.6 | 0.00 | 0.00 | 0.00 | 27 | 1014.3 |
| 20260503232555 | 17 | 251 | 1.6 | 1.6 | 0.00 | 0.00 | 0.00 | 26 | 1014.3 |
| 20260503232053 | 17 | 259 | 1.6 | 1.6 | 0.00 | 0.00 | 0.00 | 26 | 1014.2 |
| 20260503231551 | 17 | 256 | 0.0 | 0.0 | 0.00 | 0.00 | 0.00 | 26 | 1014.3 |
| 20260503231047 | 18 | 257 | 3.2 | 4.8 | 0.00 | 0.00 | 0.00 | 26 | 1014.2 |
| 20260503230544 | 17 | 252 | 0.0 | 0.0 | 0.00 | 0.00 | 0.00 | 26 | 1014.1 |
| 20260503230041 | 17 | 244 | 1.6 | 1.6 | 0.00 | 0.00 | 0.00 | 26 | 1014.1 |
| 20260503225538 | 17 | 253 | 4.8 | 6.4 | 0.00 | 0.00 | 0.00 | 25 | 1014.3 |
| 20260503225033 | 17 | 272 | 8.0 | 9.7 | 0.00 | 0.00 | 0.00 | 25 | 1014.4 |
| 20260503224531 | 17 | 256 | 0.0 | 1.6 | 0.00 | 0.00 | 0.00 | 25 | 1014.3 |
| 20260503224029 | 17 | 274 | 6.4 | 9.7 | 0.00 | 0.00 | 0.00 | 25 | 1014.2 |
| 20260503223527 | 17 | 261 | 3.2 | 4.8 | 0.00 | 0.00 | 0.00 | 25 | 1014.2 |
| 20260503223022 | 17 | 252 | 4.8 | 4.8 | 0.00 | 0.00 | 0.00 | 25 | 1014.3 |
| 20260503222520 | 18 | 260 | 1.6 | 3.2 | 0.00 | 0.00 | 0.00 | 25 | 1014.4 |
| 20260503222018 | 18 | 262 | 1.6 | 1.6 | 0.00 | 0.00 | 0.00 | 24 | 1014.4 |
| 20260503221516 | 18 | 252 | 3.2 | 3.2 | 0.00 | 0.00 | 0.00 | 24 | 1014.3 |
| 20260503221013 | 17 | 243 | 6.4 | 6.4 | 0.00 | 0.00 | 0.00 | 25 | 1014.3 |
| 20260503220509 | 17 | 271 | 8.0 | 9.7 | 0.00 | 0.00 | 0.00 | 25 | 1014.3 |
| 20260503220006 | 18 | 270 | 4.8 | 4.8 | 0.00 | 0.00 | 0.00 | 25 | 1014.3 |
| 20260503215503 | 17 | 269 | 3.2 | 3.2 | 0.00 | 0.00 | 0.00 | 25 | 1014.3 |
| 20260503215000 | 17 | 254 | 4.8 | 4.8 | 0.00 | 0.00 | 0.00 | 25 | 1014.5 |
| 20260503214459 | 17 | 246 | 11.3 | 12.9 | 0.00 | 0.00 | 0.00 | 25 | 1014.6 |
| 20260503213955 | 17 | 333 | 6.4 | 9.7 | 0.00 | 0.00 | 0.00 | 25 | 1014.4 |
| 20260503213454 | 17 | 204 | 11.3 | 12.9 | 0.00 | 0.00 | 0.00 | 25 | 1014.6 |
| 20260503212949 | 17 | 221 | 3.2 | 3.2 | 0.00 | 0.00 | 0.00 | 25 | 1014.6 |
| 20260503212447 | 17 | 285 | 9.7 | 16.1 | 0.00 | 0.00 | 0.00 | 26 | 1014.7 |
| 20260503211944 | 17 | 256 | 8.0 | 12.9 | 0.00 | 0.00 | 0.00 | 25 | 1014.5 |
| 20260503211441 | 17 | 243 | 8.0 | 9.7 | 0.00 | 0.00 | 0.00 | 25 | 1014.5 |
| 20260503210937 | 17 | 283 | 0.0 | 1.6 | 0.00 | 0.00 | 0.00 | 26 | 1014.5 |
| 20260503210433 | 17 | 251 | 4.8 | 12.9 | 0.00 | 0.00 | 0.00 | 26 | 1014.6 |
| 20260503205928 | 17 | 282 | 16.1 | 17.7 | 0.00 | 0.00 | 0.00 | 25 | 1014.7 |
| 20260503205426 | 17 | 264 | 9.7 | 11.3 | 0.00 | 0.00 | 0.00 | 26 | 1014.7 |
| 20260503204922 | 17 | 249 | 4.8 | 4.8 | 0.00 | 0.00 | 0.00 | 25 | 1014.8 |
| 20260503204419 | 17 | 252 | 1.6 | 4.8 | 0.00 | 0.00 | 0.00 | 26 | 1014.6 |
| 20260503203916 | 17 | 299 | 11.3 | 12.9 | 0.00 | 0.00 | 0.00 | 26 | 1014.6 |
| 20260503203414 | 17 | 252 | 9.7 | 16.1 | 0.00 | 0.00 | 0.00 | 26 | 1014.8 |
| 20260503202910 | 17 | 271 | 3.2 | 4.8 | 0.00 | 0.00 | 0.00 | 26 | 1014.6 |
| 20260503202409 | 17 | 261 | 8.0 | 11.3 | 0.00 | 0.00 | 0.00 | 26 | 1014.8 |
| 20260503201907 | 17 | 290 | 12.9 | 17.7 | 0.00 | 0.00 | 0.00 | 26 | 1014.9 |
| 20260503201403 | 17 | 259 | 1.6 | 3.2 | 0.00 | 0.00 | 0.00 | 26 | 1014.9 |
| 20260503200901 | 17 | 236 | 9.7 | 12.9 | 0.00 | 0.00 | 0.00 | 27 | 1015.2 |
| 20260503200356 | 17 | 300 | 12.9 | 20.9 | 0.00 | 0.00 | 0.00 | 26 | 1015.4 |
| 20260503195854 | 17 | 271 | 9.7 | 12.9 | 0.00 | 0.00 | 0.00 | 27 | 1015.2 |
| 20260503195350 | 17 | 224 | 4.8 | 9.7 | 0.00 | 0.00 | 0.00 | 26 | 1015.2 |
| 20260503194848 | 16 | 10 | 4.8 | 6.4 | 0.00 | 0.00 | 0.00 | 28 | 1015.2 |
| 20260503194343 | 16 | 266 | 9.7 | 12.9 | 0.00 | 0.00 | 0.00 | 28 | 1015.2 |
| 20260503193840 | 16 | 273 | 11.3 | 16.1 | 0.00 | 0.00 | 0.00 | 28 | 1015.5 |
| 20260503193336 | 17 | 268 | 17.7 | 27.4 | 0.00 | 0.00 | 0.00 | 28 | 1015.4 |
| 20260503192832 | 16 | 246 | 1.6 | 1.6 | 0.00 | 0.00 | 0.00 | 29 | 1015.8 |
| 20260503192328 | 16 | 252 | 12.9 | 16.1 | 0.00 | 0.00 | 0.00 | 29 | 1015.8 |
| 20260503191824 | 16 | 259 | 8.0 | 12.9 | 0.00 | 0.00 | 0.00 | 27 | 1015.9 |
| 20260503191321 | 16 | 268 | 8.0 | 14.5 | 0.00 | 0.00 | 0.00 | 29 | 1015.8 |
| 20260503190818 | 15 | 235 | 9.7 | 14.5 | 0.00 | 0.00 | 0.00 | 30 | 1016.0 |
| 20260503190315 | 16 | 233 | 12.9 | 20.9 | 0.00 | 0.00 | 0.00 | 30 | 1015.9 |
| 20260503185812 | 15 | 245 | 6.4 | 6.4 | 0.00 | 0.00 | 0.00 | 31 | 1016.1 |
| 20260503185308 | 16 | 277 | 14.5 | 17.7 | 0.00 | 0.00 | 0.00 | 29 | 1016.2 |
| 20260503184807 | 16 | 261 | 9.7 | 20.9 | 0.00 | 0.00 | 0.00 | 29 | 1016.2 |
| 20260503184304 | 15 | 333 | 6.4 | 11.3 | 0.00 | 0.00 | 0.00 | 31 | 1016.2 |
| 20260503183759 | 14 | 258 | 4.8 | 4.8 | 0.00 | 0.00 | 0.00 | 32 | 1016.4 |
| 20260503183257 | 15 | 308 | 16.1 | 20.9 | 0.00 | 0.00 | 0.00 | 30 | 1016.5 |
| 20260503182755 | 15 | 278 | 16.1 | 16.1 | 0.00 | 0.00 | 0.00 | 30 | 1016.4 |
| 20260503182254 | 15 | 294 | 12.9 | 16.1 | 0.00 | 0.00 | 0.00 | 30 | 1016.4 |
| 20260503181750 | 15 | 258 | 3.2 | 3.2 | 0.00 | 0.00 | 0.00 | 30 | 1016.2 |
| 20260503181247 | 13 | 257 | 1.6 | 3.2 | 0.00 | 0.00 | 0.00 | 32 | 1016.5 |
| 20260503180743 | 14 | 286 | 6.4 | 9.7 | 0.00 | 0.00 | 0.00 | 32 | 1016.5 |
| 20260503180242 | 14 | 249 | 3.2 | 4.8 | 0.00 | 0.00 | 0.00 | 32 | 1016.6 |
| 20260503175738 | 15 | 243 | 11.3 | 14.5 | 0.00 | 0.00 | 0.00 | 31 | 1016.8 |
| 20260503175236 | 15 | 283 | 11.3 | 17.7 | 0.00 | 0.00 | 0.00 | 30 | 1016.6 |
| 20260503174732 | 15 | 250 | 4.8 | 9.7 | 0.00 | 0.00 | 0.00 | 31 | 1016.8 |
| 20260503174230 | 14 | 302 | 8.0 | 12.9 | 0.00 | 0.00 | 0.00 | 32 | 1016.6 |
| 20260503173730 | 15 | 235 | 14.5 | 17.7 | 0.00 | 0.00 | 0.00 | 30 | 1016.8 |
| 20260503173226 | 15 | 63 | 8.0 | 14.5 | 0.00 | 0.00 | 0.00 | 31 | 1016.9 |
| 20260503172723 | 15 | 268 | 8.0 | 11.3 | 0.00 | 0.00 | 0.00 | 29 | 1017.0 |
| 20260503172220 | 15 | 244 | 3.2 | 6.4 | 0.00 | 0.00 | 0.00 | 30 | 1016.9 |
| 20260503171717 | 13 | 25 | 4.8 | 6.4 | 0.00 | 0.00 | 0.00 | 31 | 1016.9 |
| 20260503171214 | 13 | 314 | 19.3 | 29.0 | 0.00 | 0.00 | 0.00 | 32 | 1016.9 |
| 20260503170711 | 13 | 247 | 17.7 | 24.1 | 0.00 | 0.00 | 0.00 | 31 | 1016.9 |
| 20260503170208 | 14 | 274 | 16.1 | 24.1 | 0.00 | 0.00 | 0.00 | 31 | 1017.0 |
| 20260503160130 | 13 | 246 | 4.8 | 4.8 | 0.00 | 0.00 | 0.00 | 31 | 1017.4 |